Wind_Speed
30 28 25 21 17 31 55 72 89 88 88 87 87 88 90 91 93 94 96 103 103 100 112 104 108 103 98 95 97 99 88 86 80 81 82 84 79 78 77 72 69 71 74 63 61
25 23 24 20 16 19 39 57 81 87 87 86 86 86 87 89 92 91 94 99 107 106 99 95 105 96 102 102 96 97 93 80 90 89 90 90 84 74 78 71 72 75 74 70 67
28 23 21 21 17 15 23 41 66 81 84 85 85 85 87 86 89 91 93 93 96 102 105 106 104 98 88 101 101 94 92 94 86 86 90 91 85 81 77 71 74 70 68 73 67
28 26 23 21 20 19 17 23 43 70 80 83 85 85 86 87 87 89 91 92 94 97 99 103 111 110 107 98 94 97 90 91 97 99 92 88 90 88 87 77 85 70 80 76 67
29 28 27 26 25 24 22 23 26 41 66 79 81 85 85 87 87 89 89 92 93 95 98 100 103 109 111 109 107 93 101 98 98 106 103 96 88 91 90 91 87 84 86 73 77
28 26 27 29 28 31 31 29 31 32 41 60 75 83 87 87 87 88 90 92 92 93 95 97 100 102 102 104 109 112 98 99 107 105 108 107 98 94 83 85 88 91 87 78 80
28 26 27 27 29 30 36 38 37 38 39 44 55 70 83 84 87 88 90 90 93 95 95 96 98 101 102 105 106 111 112 110 107 105 100 106 106 100 94 93 93 89 90 89 81
30 32 31 31 29 28 31 35 40 44 44 44 46 53 65 77 83 88 91 90 93 94 96 99 99 101 102 104 107 108 112 116 111 110 110 113 102 94 100 101 102 101 92 91 90
27 28 27 27 28 30 30 31 34 40 45 48 49 50 50 57 66 77 85 92 95 96 98 100 102 103 104 106 109 109 109 107 110 119 117 122 102 88 92 100 107 104 104 99 97
27 27 25 25 27 26 29 30 31 32 35 39 47 53 56 56 59 63 69 79 88 97 102 102 103 105 107 112 109 109 113 111 109 110 122 133 115 101 100 100 93 88 89 90 88
27 26 25 23 24 24 26 29 32 34 34 37 38 41 45 53 58 63 69 74 78 86 93 101 106 109 113 116 113 113 114 111 109 109 122 123 113 114 106 111 112 103 89 80 76
24 23 23 23 24 25 24 24 27 30 35 41 44 48 52 56 61 66 72 78 82 86 92 97 100 110 116 120 118 116 117 113 111 111 120 121 116 106 120 115 109 107 109 106 99
25 24 23 24 25 26 29 28 28 30 35 40 43 47 51 55 59 65 71 74 80 86 93 96 100 107 112 116 120 121 120 116 116 118 124 116 119 104 107 117 123 117 107 105 106
25 25 25 26 26 27 29 29 32 34 36 39 42 47 49 53 57 59 67 72 78 84 91 92 101 106 111 114 117 119 120 123 120 122 124 115 116 110 105 107 109 114 116 112 111
25 26 26 26 26 24 25 28 29 30 31 33 34 39 44 48 52 57 58 65 71 77 86 89 96 101 105 110 115 115 116 118 117 123 121 120 118 107 103 107 108 106 107 106 100
31 30 29 27 26 27 29 30 30 32 36 39 42 44 48 50 53 56 61 65 70 75 83 81 86 91 96 101 106 106 103 110 113 114 121 116 115 105 105 102 107 107 108 105 102
38 36 33 32 33 32 32 33 36 40 41 42 45 45 48 49 53 59 65 67 65 67 69 74 79 80 80 84 93 95 96 99 104 109 104 102 108 106 103 108 107 105 101 101 98
39 39 38 37 37 39 40 39 39 39 41 42 46 47 45 51 55 62 64 62 54 57 57 60 63 66 68 73 75 80 85 91 96 97 92 99 97 95 109 108 99 99 99 93 89
38 38 41 41 42 41 42 44 46 46 46 48 51 50 51 51 57 64 59 57 50 44 46 46 49 50 53 59 61 65 68 76 86 92 90 88 91 98 99 107 103 99 96 95 88
32 35 39 40 41 45 46 48 49 50 52 53 52 51 53 56 59 63 59 51 42 36 38 37 40 41 42 47 52 56 61 63 69 77 85 77 81 89 97 97 98 100 98 93 89
29 33 35 38 39 42 46 48 50 52 53 55 54 50 51 55 58 59 57 47 38 31 31 33 33 33 33 40 42 48 53 57 62 68 73 76 78 82 85 93 98 100 93 87 84
28 31 33 37 39 42 45 49 51 52 52 54 55 52 50 51 59 58 49 40 34 27 27 25 24 26 27 32 35 42 47 50 54 64 68 72 77 89 90 91 101 89 85 87 84
27 29 31 34 39 41 42 47 49 49 50 51 52 50 47 51 58 55 43 34 29 25 22 21 20 22 23 26 32 37 42 46 54 59 66 65 71 79 70 83 93 88 83 80 76
34 30 32 33 36 40 45 47 48 48 49 48 49 47 47 52 56 53 40 34 26 22 18 16 16 17 21 26 26 29 35 42 48 51 63 63 70 75 74 85 92 87 82 75 72
50 40 33 34 35 38 41 43 45 46 46 45 45 44 44 53 55 51 39 33 28 21 15 12 12 12 16 19 21 24 32 38 44 48 59 69 70 78 83 92 93 80 74 71 68
66 60 51 44 40 37 37 39 41 42 44 43 42 40 40 49 52 52 42 37 25 16 13 10 7 6 10 15 18 23 28 30 35 43 51 59 65 76 82 80 73 72 73 68 64
68 66 62 58 51 45 40 38 38 39 38 40 39 37 38 46 51 50 41 33 22 18 14 10 6 4 5 10 13 17 21 27 35 38 48 57 64 64 65 68 70 76 70 63 59
Wind_Direction
316 315 321 326 285 240 225 220 217 221 224 225 226 227 228 229 229 231 231 226 226 229 229 233 234 235 236 238 240 240 243 241 241 234 244 249 251 253 250 242 249 253 251 255 253
308 305 310 317 314 259 233 227 219 220 223 226 226 227 229 230 230 231 232 231 228 228 229 231 235 238 238 236 236 238 236 238 238 236 242 243 241 243 247 245 251 249 248 250 260
305 295 292 300 299 291 249 236 228 222 223 226 228 228 229 230 232 232 231 231 233 233 234 230 232 232 233 236 236 242 238 236 235 238 237 241 239 241 239 241 245 245 247 254 255
298 289 276 275 280 278 269 251 236 229 227 226 228 230 231 232 232 234 233 233 233 234 235 234 233 232 230 233 237 238 236 240 240 237 235 241 245 244 244 241 242 241 244 248 250
299 287 280 263 260 261 263 258 245 236 234 232 231 231 232 233 234 235 235 236 235 235 235 236 235 236 235 234 235 234 236 238 237 240 237 238 242 242 243 241 243 247 247 252 247
302 287 278 273 261 252 248 247 250 245 237 234 236 236 234 234 235 236 237 237 238 238 238 238 238 238 237 237 238 234 230 235 238 239 239 241 239 240 241 242 247 246 247 251 249
301 288 281 275 269 259 251 244 241 243 245 239 236 237 238 238 238 239 238 239 240 240 240 241 240 240 238 238 239 235 236 233 237 237 241 241 240 243 246 245 245 246 249 251 250
297 296 297 291 280 269 257 252 250 245 245 247 246 242 238 238 240 241 241 241 242 242 243 242 242 242 240 239 239 238 237 236 235 238 240 242 243 245 245 247 246 248 249 250 250
315 306 303 294 291 288 274 266 257 251 247 246 247 248 248 245 243 242 242 243 242 244 245 244 243 243 242 241 239 239 239 238 235 238 237 241 239 235 233 242 246 247 249 252 251
308 316 305 294 294 291 277 272 266 259 256 254 250 247 248 247 247 246 246 246 245 245 244 245 246 245 244 243 242 240 238 238 236 237 240 240 236 233 237 238 238 241 245 248 251
314 310 306 299 289 286 281 270 266 261 260 256 255 254 250 252 250 250 251 250 250 250 248 246 246 246 246 245 243 242 242 238 237 237 241 240 239 233 235 242 242 239 241 242 247
331 327 315 303 291 280 284 277 265 263 262 258 256 258 258 258 256 255 256 255 254 253 254 251 249 248 248 247 246 244 243 241 237 238 241 241 241 234 238 239 243 243 243 246 245
311 321 325 308 296 287 279 278 272 270 267 265 263 264 264 265 266 266 263 262 259 257 256 254 254 253 251 250 249 247 245 244 241 239 241 238 240 236 238 240 243 245 244 247 249
311 307 312 317 307 288 281 278 277 275 272 272 270 272 271 271 269 271 272 268 263 260 257 254 253 253 253 251 251 249 248 245 242 242 241 241 241 237 235 239 241 244 246 245 246
310 311 307 306 315 303 294 287 281 282 280 277 281 284 285 284 281 283 281 275 271 268 261 255 254 254 254 254 253 250 248 249 246 243 243 240 241 239 236 236 240 241 244 246 245
303 305 306 305 301 296 294 295 289 287 286 289 294 293 292 292 290 291 291 284 274 269 267 264 260 256 255 254 254 253 250 249 249 245 242 239 242 237 238 238 238 240 242 244 245
293 297 301 304 306 301 293 288 287 288 287 290 292 291 293 300 300 299 298 290 283 276 269 265 262 260 256 253 251 250 248 248 247 246 245 241 239 239 235 236 235 238 241 241 243
288 289 292 299 302 303 302 298 295 292 294 293 297 300 301 306 309 307 303 295 288 283 272 266 262 257 255 253 250 248 245 244 244 244 244 240 235 235 235 235 235 237 240 240 242
282 285 287 290 295 298 301 300 301 303 306 307 306 306 306 309 312 313 306 302 297 288 278 269 264 259 252 250 248 245 242 237 237 239 239 233 229 227 230 233 230 233 236 238 240
283 282 284 289 292 294 297 299 301 302 303 306 309 308 309 313 317 319 313 308 302 292 282 273 265 258 252 249 245 242 240 235 234 236 235 232 228 225 225 228 229 230 231 233 236
284 286 287 289 291 293 296 297 299 303 305 307 309 312 315 319 322 323 320 313 307 297 282 273 263 259 251 247 244 239 237 232 230 230 231 229 226 225 223 223 226 228 228 230 233
291 293 297 294 293 294 297 299 301 305 309 311 313 317 321 323 328 327 323 314 307 304 289 277 264 259 249 243 237 235 232 230 225 224 225 224 223 220 218 218 224 225 226 227 229
312 296 294 292 294 296 297 300 305 308 311 313 315 320 326 329 332 333 330 326 319 314 297 279 266 257 246 240 233 228 225 221 220 218 221 220 217 222 213 215 221 222 221 225 226
352 332 314 306 299 297 299 302 305 308 311 316 318 325 330 332 335 338 341 339 332 321 309 296 289 270 247 238 235 232 230 224 220 214 218 215 213 214 209 214 214 215 217 220 222
9 360 344 331 321 311 306 305 306 307 310 314 319 327 332 334 338 342 346 348 338 337 331 316 304 281 261 246 231 223 223 224 221 212 214 210 210 208 199 206 210 209 212 215 219
13 10 5 355 344 336 328 318 311 310 311 317 322 330 333 336 340 345 346 350 345 351 353 345 324 278 248 239 228 220 220 218 220 212 210 213 206 209 201 207 203 204 207 211 217
8 8 6 4 359 349 339 335 329 321 318 319 325 331 336 339 343 344 345 349 352 3 4 5 13 325 244 234 227 222 217 212 207 205 202 204 205 199 197 202 197 202 202 203 211
Height
10639 10634 10629 10623 10619 10620 10625 10634 10643 10653 10663 10674 10684 10692 10701 10712 10719 10728 10739 10748 10760 10762 10768 10775 10783 10789 10794 10806 10809 10815 10828 10839 10842 10840 10840 10839 10854 10862 10865 10874 10880 10881 10882 10888 10892
10637 10633 10629 10625 10622 10620 10622 10629 10635 10643 10652 10662 10671 10680 10689 10698 10704 10714 10720 10731 10742 10746 10756 10765 10768 10772 10780 10787 10792 10802 10814 10824 10820 10819 10824 10822 10836 10846 10853 10866 10867 10872 10873 10875 10881
10633 10629 10627 10625 10623 10621 10621 10624 10628 10634 10643 10651 10660 10668 10676 10683 10690 10697 10705 10714 10723 10730 10738 10745 10751 10758 10766 10769 10779 10785 10805 10802 10804 10805 10808 10806 10824 10830 10840 10850 10854 10858 10864 10866 10870
10627 10624 10623 10622 10621 10620 10621 10621 10622 10628 10635 10641 10650 10657 10664 10671 10681 10684 10689 10697 10704 10709 10716 10724 10730 10738 10748 10756 10754 10762 10784 10784 10789 10786 10792 10794 10801 10821 10826 10840 10838 10844 10849 10855 10860
10620 10618 10616 10616 10616 10616 10616 10617 10618 10621 10626 10633 10639 10646 10652 10658 10666 10669 10676 10681 10686 10692 10699 10704 10711 10718 10732 10733 10735 10756 10762 10766 10767 10765 10779 10778 10791 10802 10816 10825 10824 10831 10836 10845 10846
10614 10612 10610 10609 10609 10609 10610 10611 10612 10614 10616 10620 10626 10632 10638 10646 10649 10654 10659 10663 10669 10674 10680 10685 10693 10699 10713 10717 10719 10731 10737 10746 10746 10753 10761 10769 10776 10774 10804 10806 10810 10816 10821 10829 10833
10609 10606 10604 10602 10602 10602 10602 10603 10604 10606 10608 10610 10613 10617 10623 10631 10634 10639 10643 10648 10653 10656 10661 10667 10673 10676 10687 10693 10700 10709 10717 10728 10730 10748 10750 10747 10749 10775 10787 10790 10796 10798 10806 10814 10815
10603 10600 10598 10596 10595 10595 10595 10595 10596 10598 10600 10602 10603 10605 10609 10613 10619 10623 10627 10632 10635 10637 10643 10648 10652 10656 10664 10669 10676 10682 10688 10706 10733 10724 10738 10709 10743 10772 10768 10771 10776 10782 10791 10796 10801
10598 10593 10590 10588 10588 10588 10588 10588 10588 10588 10590 10592 10594 10595 10600 10601 10604 10606 10608 10611 10615 10618 10621 10624 10630 10635 10640 10644 10648 10662 10674 10687 10704 10704 10702 10677 10737 10754 10741 10747 10754 10765 10774 10779 10785
10592 10588 10585 10582 10581 10581 10580 10580 10580 10580 10581 10581 10581 10584 10584 10589 10590 10591 10591 10592 10594 10597 10599 10603 10607 10613 10616 10613 10630 10638 10639 10656 10676 10684 10661 10657 10709 10726 10727 10724 10737 10745 10754 10762 10769
10587 10582 10579 10576 10576 10575 10574 10573 10574 10574 10574 10573 10574 10574 10575 10575 10577 10577 10576 10577 10577 10576 10576 10581 10587 10588 10581 10584 10604 10614 10618 10641 10657 10662 10633 10642 10680 10714 10710 10702 10714 10732 10739 10749 10757
10582 10578 10574 10571 10570 10569 10568 10566 10565 10565 10565 10564 10566 10565 10564 10563 10562 10562 10560 10559 10558 10559 10556 10560 10566 10555 10555 10560 10572 10586 10593 10615 10625 10632 10610 10630 10651 10694 10689 10694 10697 10714 10726 10731 10741
10578 10574 10570 10566 10564 10562 10561 10560 10559 10558 10557 10556 10556 10554 10552 10550 10547 10543 10540 10538 10535 10535 10533 10539 10537 10528 10530 10534 10543 10556 10567 10584 10593 10595 10581 10618 10625 10669 10674 10676 10681 10691 10708 10714 10721
10572 10568 10565 10561 10558 10555 10553 10552 10550 10549 10548 10546 10543 10540 10539 10535 10531 10527 10517 10514 10511 10509 10504 10511 10500 10500 10500 10506 10512 10523 10532 10542 10562 10563 10567 10603 10605 10635 10658 10656 10662 10674 10681 10696 10705
10565 10561 10558 10555 10551 10547 10545 10544 10542 10539 10538 10534 10533 10529 10524 10520 10512 10505 10500 10492 10486 10480 10473 10479 10473 10472 10473 10475 10475 10490 10501 10508 10528 10533 10554 10563 10580 10619 10635 10639 10647 10659 10663 10673 10691
10557 10554 10551 10547 10545 10542 10539 10536 10534 10532 10527 10524 10520 10515 10509 10503 10494 10486 10476 10466 10459 10454 10442 10447 10443 10442 10442 10444 10445 10454 10475 10478 10489 10501 10500 10551 10563 10596 10611 10625 10629 10635 10641 10655 10673
10548 10545 10543 10540 10536 10533 10530 10528 10525 10520 10518 10513 10507 10502 10495 10486 10475 10465 10453 10440 10434 10423 10418 10412 10407 10409 10412 10414 10415 10427 10440 10450 10454 10460 10493 10524 10539 10569 10587 10590 10601 10613 10628 10640 10655
10537 10536 10533 10531 10528 10524 10520 10517 10513 10509 10504 10500 10493 10486 10480 10468 10457 10444 10430 10415 10411 10396 10388 10383 10381 10381 10385 10385 10391 10400 10411 10422 10428 10441 10465 10483 10511 10542 10548 10562 10591 10600 10607 10627 10645
10526 10525 10523 10522 10518 10514 10510 10506 10501 10497 10492 10485 10479 10472 10461 10453 10441 10424 10408 10395 10383 10374 10366 10364 10360 10361 10364 10365 10372 10376 10385 10393 10402 10416 10432 10448 10477 10500 10526 10533 10561 10576 10593 10606 10626
10517 10515 10513 10512 10508 10503 10499 10494 10490 10484 10479 10472 10466 10458 10447 10435 10422 10406 10388 10375 10367 10360 10351 10349 10345 10346 10348 10350 10354 10359 10365 10377 10389 10398 10413 10434 10456 10482 10498 10521 10540 10554 10568 10589 10607
10509 10507 10504 10501 10499 10493 10488 10484 10478 10472 10465 10457 10450 10443 10433 10420 10407 10391 10374 10361 10353 10348 10341 10336 10334 10333 10337 10336 10341 10345 10351 10360 10371 10381 10395 10414 10441 10457 10485 10504 10513 10525 10556 10580 10596
10502 10499 10497 10493 10489 10483 10478 10473 10467 10460 10452 10443 10434 10428 10419 10408 10392 10378 10363 10350 10342 10336 10330 10327 10325 10323 10324 10324 10329 10332 10338 10348 10361 10367 10381 10397 10420 10427 10452 10483 10489 10522 10550 10564 10580
10496 10492 10487 10483 10479 10474 10468 10462 10455 10448 10441 10433 10424 10416 10406 10396 10382 10367 10352 10340 10333 10327 10322 10318 10317 10315 10314 10315 10317 10322 10328 10336 10343 10356 10368 10390 10410 10430 10459 10472 10484 10509 10531 10551 10574
10492 10485 10479 10474 10470 10465 10458 10451 10445 10438 10431 10423 10414 10405 10395 10384 10373 10358 10344 10334 10326 10321 10317 10312 10310 10309 10308 10307 10312 10318 10323 10328 10336 10352 10360 10380 10396 10416 10436 10449 10467 10493 10517 10541 10559
10492 10484 10475 10467 10462 10455 10448 10441 10434 10428 10422 10414 10407 10398 10388 10376 10364 10351 10339 10330 10322 10317 10312 10309 10306 10304 10303 10305 10307 10312 10315 10321 10331 10345 10352 10359 10381 10392 10397 10410 10442 10487 10516 10534 10548
10493 10483 10475 10466 10457 10449 10440 10432 10425 10418 10410 10405 10398 10391 10382 10373 10360 10346 10335 10328 10320 10314 10308 10304 10302 10300 10300 10301 10303 10307 10308 10319 10330 10339 10353 10361 10376 10383 10401 10431 10463 10486 10502 10523 10541
10496 10484 10475 10466 10455 10445 10435 10426 10417 10408 10403 10396 10390 10383 10376 10367 10355 10344 10333 10325 10318 10311 10307 10303 10301 10299 10298 10298 10300 10304 10310 10316 10322 10334 10344 10352 10368 10387 10412 10429 10454 10467 10494 10518 10532